User: anonymous   Login
Location: Maddington
(51.2000°N, 1.9167°W)
Time: 21:03:11
(UTC+00:00)
Language:

NOSS 3-2 (A) - Orbit

View from above orbital plane
View from above orbital plane
View from above satellite
View from above satellite

Ground track
Ground track

The orbit data is extracted from the following two-line orbital elements,

1 28095U 03054A   21108.83248224 0.00000000  00000-0  00000-0 0    04
2 28095  63.4157 329.6860 0433538 359.8098   0.1902 13.41403461    03
Epoch (UTC): 18 April 2021 19:58:46
Eccentricity: 0.0433538
inclination: 63.4157°
perigee height: 779 km
apogee height: 1428 km
right ascension of ascending node: 329.6860°
argument of perigee: 359.8098°
revolutions per day: 13.41403461
mean anomaly at epoch: 0.1902°
orbit number at epoch: 0

The dashed part of the orbit path shows where the satellite is in the earth's shadow,  

DLR